Location: WWIN Observatory
(34.8953°N, 91.9583°W)
Time: 01:41:22
(UTC-05:00)

N. Korean satellite - Visible Passes

Search period start: 13 August 2020 00:00
Search period end: 23 August 2020 00:00
Orbit: 453 x 506 km, 97.2° (Epoch: 12 August)

Date Brightness Start Highest point End Pass type
(mag) Time Alt. Az. Time Alt. Az. Time Alt. Az.
15 Aug 9.7 05:46:09 10° ENE 05:48:11 14° E 05:50:12 10° SE visible
18 Aug 9.3 06:00:55 10° NE 06:03:51 23° E 06:06:49 10° SSE visible
19 Aug 10.1 05:36:59 10° E 05:37:48 11° E 05:38:37 10° ESE visible
22 Aug 9.6 05:50:58 10° NE 05:53:28 17° E 05:55:58 10° SE visible
